Showing default

HULIANWANG DIGUI-25, 63692

Orbit data source: Space-Track

HULIANWANG DIGUI-25, 63692 is a payload satellite owned by Zhongguo Xingwang (CN) in LEO that was launched on Mon, 28 Apr 2025 UTC via a CHANG ZHENG 5B/YZ-2 launch vehicle from the Wenchang Satellite Launch Center (WSC). Payload-class satellites include a variety of spacecraft equipped with specific instruments for various scientific and technological missions. These include communications satellites like Starlink; space stations such as the ISS; scientific satellites like the Hubble; Earth observation satellites from companies like Planet Labs, Umbra, and HawkEye 360; GPS; miniature CubeSats for education and research; and military/defense satellites.

Loading next visibility...
Identifier
63692, 2025-086F
Orbit
LEO
Country
Flag of CNCN / PRC
Related business
Manufacturer
CAST?
Mission
Operational Civil Communications
Bus & Motor
XINGWANG CL, Unknown motor
Mass
~800 kg wet, ~800 kg dry
Launch date (UTC)
2025-04-28 (1 year ago)
Launch vehicle
CHANG ZHENG 5B/YZ-2
Launch site
Wenchang Satellite Launch Center (WSC)
Object type
Payload
Rocket body
Debris
Shape & HBR
Box + 2 Pan, 5.0 m
Radar Cross Section
5.935 m², Large (>1 m²)

Expand to show TLE details & history
Last TLE update: 12 hours ago

TLE from 12 hours ago
0 HULIANWANG DIGUI-25
1 63692U 25086F   26171.39420565  .00000045  00000-0  70137-4 0  9999
2 63692  86.5032 311.9492 0001466 106.2199 253.9096 13.24409201 55286
Epoch: 2026-06-20T09:27Z
TLE epoch observation values (Epoch: 2026-06-20T09:27:39.368Z)
Latitude
-0.00005°
Longitude
-98.5743°
Altitude
1,171.126 km
Speed
7.268 km/s
True Right ascension
20h 47m 47s
True Declination
0° 00' 00"
Sunlit
Object was in full shadow at epoch
Visualization orbit readout
Latitude
Unknown
Longitude
Unknown
Altitude
Unknown
Speed
Unknown
Apparent Right ascension
Unknown
Apparent Declination
Unknown
Sunlit
N/A
Visualization observer readout
Local Sidereal Time
08:33:23
Azimuth
Unknown
Elevation
Unknown
Doppler factor
Unknown
Orbital elements
Apogee altitude
1,166.151 km
Perigee altitude
1,163.939 km
Semi-major axis
7,543.182 km
Eccentricity
0.00015
Inclination
86.5032°
RAAN
311.9492°
Arg. of periapsis
106.2199°
True anomaly
253.89346°
Mean anomaly
253.9096°
Eccentric anomaly
253.90153°
Mean motion
3.31292 °/min
Orbital period
108.67 mins
BSTAR
0.000070137
Loading maneuver chart data...
Computing Atmospheric mass density...
Loading historical data...
Loading historical data...
Loading historical data...
Loading historical data...
Loading historical data...
Loading historical data...
Loading historical data...

Documentation

Showing up to 5 results
|